Location: Codford Saint Peter
(51.1597°N, 2.0531°W)
Time: 13:13:46
(UTC+00:00)

COSMOS 2406 - Pass Details

Date: 18 September 2020
Orbit: 844 x 863 km, 71.0° (Epoch: 21 October)

Event Time Altitude Azimuth Distance (km) Brightness Sun altitude
Rises 20:45:24 0° 330° (NNW) 3,416 7.4 -23.0°
Reaches altitude 10° 20:47:53 10° 334° (NNW) 2,477 6.5 -23.3°
Maximum altitude 20:53:32 66° 56° (ENE) 924 3.2 -24.0°
Enters shadow 20:54:22 58° 100° (E) 983 3.2 -24.1°
